OBJECT W, 61755

Orbit data source: Space-Track

You're viewing an Uncataloged Satellite

Recently launched and/or uncataloged satellites may have evolving metadata. Metadata may include but not limited to: Owner, Maufacturer, Bus, Motor, and Mission.

OBJECT W, 61755 is a satellite in SSO that was launched on Mon, 04 Nov 2024 UTC via a SOYUZ-2-1B launch vehicle from the Vostochny Cosmodrome (VOSTO). Unknown objects in Earth's orbit typically refer to objects detected orbiting the Earth but have not yet been identified or cataloged. These objects could be anything from previously untracked satellites, spent rocket stages, debris from satellite collisions, or even natural meteoroids temporarily captured by Earth's gravity.

Loading next visibility...
Identifier
61755, 2024-199W
Orbit
SSO
Country
Flag of TBDTBD
Related business
Manufacturer
Sputniks
Mission
Operational Commercial Communications
Bus & Motor
CUBESAT 3U?, Unknown motor
Mass
3 kg wet, 3 kg dry
Launch date (UTC)
2024-11-04 (2 years ago)
Launch vehicle
SOYUZ-2-1B
Launch site
Vostochny Cosmodrome (VOSTO)
Object type
Unknown
Shape & HBR
Box, 0.1 m
Radar Cross Section
0.035 m², Small (<0.1 m²)

Expand to show TLE details & history
Last TLE update: 7 hours ago

TLE from 7 hours ago
0 OBJECT W
1 61755U 24199W   26127.91921650  .00054006  00000-0  59081-3 0  9991
2 61755  97.2966   5.7793 0006387  74.9469 285.2496 15.63122048131495
Epoch: 2026-05-07T22:03Z
TLE epoch observation values (Epoch: 2026-05-07T22:03:40.305Z)
Latitude
-0.00004°
Longitude
169.10292°
Altitude
380.664 km
Speed
7.682 km/s
True Right ascension
00h 23m 07s
True Declination
0° 00' 00"
Sunlit
Object was in daylight at epoch
Visualization orbit readout
Latitude
Unknown
Longitude
Unknown
Altitude
Unknown
Speed
Unknown
Apparent Right ascension
Unknown
Apparent Declination
Unknown
Sunlit
N/A
Visualization observer readout
Local Sidereal Time
12:39:57
Azimuth
Unknown
Elevation
Unknown
Doppler factor
Unknown
Orbital elements
Apogee altitude
379.863 km
Perigee altitude
371.235 km
Semi-major axis
6,753.686 km
Eccentricity
0.00064
Inclination
97.2966°
RAAN
5.7793°
Arg. of periapsis
74.9469°
True anomaly
285.17897°
Mean anomaly
285.2496°
Eccentric anomaly
285.21429°
Mean motion
3.9105 °/min
Orbital period
92.06 mins
BSTAR
0.00059081
Loading maneuver chart data...
Computing Atmospheric mass density...
Loading historical data...
Loading historical data...
Loading historical data...
Loading historical data...
Loading historical data...
Loading historical data...
Loading historical data...

Documentation

Showing up to 5 results
|